Location: Aulagny
(45.1643°N, 4.3096°E)
Time: 17:33:35
(UTC+00:00)

H-2A R/B - Pass Details

Date: 21 October 2019
Orbit: 734 x 837 km, 98.3° (Epoch: 17 November)

Event Time Altitude Azimuth Distance (km) Brightness Sun altitude
Exits shadow 18:42:58 30° 49° (NE) 1,457 3.1 -20.9°
Drops below altitude 10° 18:46:53 10° 5° (N) 2,451 4.6 -21.6°
Sets 18:49:30 0° 355° (N) 3,396 5.5 -22.1°
